DW1520 Weather Reports


time (UTC)temp
C
wind
direction
speed
KPH
gust
KPH
rain 1hr
cm
rain 24hr
cm
rain mn
cm
humidity
%
barometer
mb
20260506184505 5 208 3.2 4.8 0.00 0.00 0.00 54 1015.5
20260506184006 5 265 1.6 4.8 0.00 0.00 0.00 53 1015.6
20260506183006 5 217 4.8 12.9 0.00 0.00 0.00 54 1015.5
20260506182005 5 285 1.6 4.8 0.00 0.00 0.00 53 1015.5
20260506181506 5 224 3.2 4.8 0.00 0.00 0.00 55 1015.5
20260506181005 5 229 3.2 14.5 0.00 0.00 0.00 54 1015.5
20260506180006 5 336 3.2 8.0 0.00 0.00 0.00 54 1015.5
20260506175505 5 291 6.4 19.3 0.00 0.00 0.00 54 1015.5
20260506175006 5 299 4.8 14.5 0.00 0.00 0.00 56 1015.5
20260506174506 5 310 4.8 14.5 0.00 0.00 0.00 54 1015.6
20260506174005 5 289 3.2 12.9 0.00 0.00 0.00 57 1015.6
20260506173505 5 279 3.2 14.5 0.00 0.00 0.00 56 1015.7
20260506173005 5 310 3.2 9.7 0.00 0.00 0.00 56 1015.7
20260506172505 5 291 4.8 11.3 0.00 0.00 0.00 56 1015.7
20260506172005 5 272 4.8 11.3 0.00 0.00 0.00 56 1015.8
20260506171505 5 274 1.6 4.8 0.00 0.00 0.00 57 1015.8
20260506171005 5 304 3.2 12.9 0.00 0.00 0.00 56 1015.8
20260506170505 5 306 4.8 19.3 0.00 0.00 0.00 56 1015.8
20260506170005 5 295 6.4 19.3 0.00 0.00 0.00 55 1015.8
20260506165505 5 239 4.8 8.0 0.00 0.00 0.00 56 1015.9
20260506165005 5 254 3.2 14.5 0.00 0.00 0.00 56 1015.9
20260506164505 5 279 3.2 14.5 0.00 0.00 0.00 57 1015.7
20260506164005 5 273 4.8 19.3 0.00 0.00 0.00 57 1015.7
20260506163505 5 304 4.8 14.5 0.00 0.00 0.00 56 1015.7
20260506162505 5 247 3.2 11.3 0.00 0.00 0.00 57 1015.7
20260506162005 5 305 4.8 11.3 0.00 0.00 0.00 56 1015.6
20260506161505 5 283 3.2 11.3 0.00 0.00 0.00 56 1015.7
20260506161006 5 279 4.8 11.3 0.00 0.00 0.00 56 1015.7
20260506160005 5 297 4.8 12.9 0.00 0.00 0.00 57 1015.7
20260506155006 5 231 3.2 11.3 0.00 0.00 0.00 57 1015.5
20260506154505 5 249 4.8 11.3 0.00 0.00 0.00 55 1015.5
20260506154005 5 266 4.8 12.9 0.00 0.00 0.00 56 1015.4
20260506153506 5 211 1.6 12.9 0.00 0.00 0.00 56 1015.4
20260506152506 5 298 3.2 11.3 0.00 0.00 0.00 56 1015.3
20260506152005 5 230 3.2 12.9 0.00 0.00 0.00 57 1015.3
20260506151505 5 267 3.2 12.9 0.00 0.00 0.00 57 1015.3
20260506150005 5 300 3.2 12.9 0.00 0.00 0.00 56 1015.4
20260506145505 5 251 3.2 8.0 0.00 0.00 0.00 55 1015.4
20260506145005 5 312 3.2 11.3 0.00 0.00 0.00 56 1015.4
20260506144505 5 313 3.2 4.8 0.00 0.00 0.00 57 1015.4
20260506144005 5 274 3.2 12.9 0.00 0.00 0.00 56 1015.4
20260506143505 5 296 4.8 12.9 0.00 0.00 0.00 55 1015.5
20260506142006 5 293 4.8 11.3 0.00 0.00 0.00 55 1015.4
20260506141505 5 211 3.2 11.3 0.00 0.00 0.00 55 1015.4
20260506140505 5 231 4.8 12.9 0.00 0.00 0.00 58 1015.3
20260506140006 5 315 4.8 11.3 0.00 0.00 0.00 58 1015.2
20260506135505 5 305 3.2 11.3 0.00 0.00 0.00 57 1015.2
20260506135005 5 208 3.2 8.0 0.00 0.00 0.00 58 1015.2
20260506134505 5 232 4.8 12.9 0.00 0.00 0.00 57 1015.1
20260506134006 5 294 4.8 14.5 0.00 0.00 0.00 59 1015.0
20260506133505 5 290 1.6 4.8 0.00 0.00 0.00 60 1015.0
20260506133005 4 289 3.2 4.8 0.00 0.00 0.00 60 1014.9
20260506132505 4 274 3.2 4.8 0.00 0.00 0.00 62 1014.9
20260506132005 3 290 1.6 11.3 0.00 0.00 0.00 62 1014.9
20260506131505 3 297 1.6 4.8 0.00 0.00 0.00 63 1014.9
20260506131005 3 297 3.2 4.8 0.00 0.00 0.00 64 1014.9
20260506130505 3 297 3.2 8.0 0.00 0.00 0.00 66 1014.8
20260506125005 2 297 3.2 4.8 0.00 0.00 0.00 68 1014.7
20260506124505 2 313 0.0 3.2 0.00 0.00 0.00 72 1014.7
20260506124006 2 313 1.6 4.8 0.00 0.00 0.00 73 1014.6
20260506123506 1 312 1.6 4.8 0.00 0.00 0.00 75 1014.5
20260506123005 1 312 0.0 1.6 0.00 0.00 0.00 76 1014.4
20260506122505 1 312 1.6 3.2 0.00 0.00 0.00 76 1014.3
20260506122005 0 312 0.0 1.6 0.00 0.00 0.00 77 1014.3
20260506121505 0 312 0.0 0.0 0.00 0.00 0.00 78 1014.2
20260506121005 0 312 0.0 0.0 0.00 0.00 0.00 79 1014.3
20260506120505 0 312 0.0 0.0 0.00 0.00 0.00 80 1014.3
20260506115505 0 312 0.0 0.0 0.00 0.00 0.00 82 1014.1
20260506114505 0 312 0.0 0.0 0.00 0.00 0.00 82 1013.7
20260506114005 0 312 0.0 1.6 0.00 0.00 0.00 82 1013.7
20260506113505 0 312 0.0 1.6 0.00 0.00 0.00 82 1013.7
20260506112505 0 312 0.0 0.0 0.00 0.00 0.00 81 1013.6
20260506112005 0 312 0.0 0.0 0.00 0.00 0.00 80 1013.6
20260506111505 0 312 0.0 0.0 0.00 0.00 0.00 80 1013.7
20260506111005 0 312 0.0 0.0 0.00 0.00 0.00 80 1013.7
20260506110005 0 312 0.0 0.0 0.00 0.00 0.00 80 1013.7
20260506105505 0 312 0.0 0.0 0.00 0.00 0.00 80 1013.6
20260506105005 0 312 0.0 0.0 0.00 0.00 0.00 79 1013.7
20260506104505 0 312 0.0 0.0 0.00 0.00 0.00 79 1013.6
20260506104006 0 312 0.0 0.0 0.00 0.00 0.00 79 1013.6
20260506103505 0 312 0.0 0.0 0.00 0.00 0.00 79 1013.6
20260506103006 0 312 0.0 0.0 0.00 0.00 0.00 78 1013.6
20260506102505 0 312 0.0 0.0 0.00 0.00 0.00 78 1013.4
20260506101505 0 312 0.0 0.0 0.00 0.00 0.00 77 1013.3
20260506101006 0 312 0.0 0.0 0.00 0.00 0.00 77 1013.2
20260506100005 0 312 0.0 0.0 0.00 0.00 0.00 76 1013.4
20260506095505 0 312 0.0 0.0 0.00 0.00 0.00 75 1013.2
20260506095005 0 312 0.0 0.0 0.00 0.00 0.00 75 1013.2
20260506094506 0 312 0.0 0.0 0.00 0.00 0.00 74 1013.1
20260506094005 0 312 0.0 0.0 0.00 0.00 0.00 74 1013.1
20260506093506 0 312 0.0 0.0 0.00 0.00 0.00 74 1012.9
20260506093006 1 312 0.0 1.6 0.00 0.00 0.00 74 1012.9
20260506091506 1 312 1.6 4.8 0.00 0.00 0.00 73 1013.1
20260506091006 1 312 0.0 1.6 0.00 0.00 0.00 73 1013.1
20260506090507 1 312 0.0 1.6 0.00 0.00 0.00 73 1013.0
20260506090007 1 312 0.0 0.0 0.00 0.00 0.00 72 1012.9
20260506085506 1 312 0.0 0.0 0.00 0.00 0.00 72 1012.8
20260506085006 1 312 0.0 0.0 0.00 0.00 0.00 71 1012.7
20260506084506 1 312 0.0 3.2 0.00 0.00 0.00 71 1012.8
20260506084007 1 312 0.0 3.2 0.00 0.00 0.00 71 1012.8
20260506083506 1 312 0.0 3.2 0.00 0.00 0.00 71 1012.8
20260506083006 1 312 0.0 1.6 0.00 0.00 0.00 70 1012.8
20260506082506 1 312 0.0 3.2 0.00 0.00 0.00 71 1012.8
20260506082006 1 312 0.0 4.8 0.00 0.00 0.00 71 1012.8
20260506081007 1 312 0.0 1.6 0.00 0.00 0.00 70 1012.6
20260506080506 1 312 1.6 3.2 0.00 0.00 0.00 70 1012.6
20260506073506 2 312 0.0 1.6 0.00 0.00 0.00 68 1012.5
20260506073007 2 312 0.0 3.2 0.00 0.00 0.00 67 1012.4
20260506072507 2 312 0.0 3.2 0.00 0.00 0.00 68 1012.4
20260506072007 2 312 0.0 1.6 0.00 0.00 0.00 68 1012.3
20260506071506 2 312 0.0 1.6 0.00 0.00 0.00 68 1012.3
20260506070506 2 312 0.0 0.0 0.00 0.00 0.00 67 1012.2
20260506062506 3 312 0.0 1.6 0.00 0.00 0.00 65 1011.9
20260506062007 3 312 0.0 1.6 0.00 0.00 0.00 64 1012.0
20260506061006 3 312 0.0 0.0 0.00 0.00 0.00 63 1012.0
20260506051006 5 298 0.0 3.2 0.00 0.00 0.00 58 1011.6
20260506045007 5 298 0.0 1.6 0.00 0.00 0.00 57 1011.4
20260506044506 5 298 0.0 1.6 0.00 0.00 0.00 57 1011.4
20260506044007 5 298 0.0 0.0 0.00 0.00 0.00 57 1011.4
20260506043506 5 298 0.0 3.2 0.00 0.00 0.00 56 1011.4
20260506043006 5 298 0.0 4.8 0.00 0.00 0.00 56 1011.4
20260506042506 5 298 1.6 4.8 0.00 0.00 0.00 55 1011.3
20260506041506 5 292 1.6 3.2 0.00 0.00 0.00 54 1011.3
20260506040506 6 287 1.6 4.8 0.00 0.00 0.00 54 1011.2
20260506040006 6 308 1.6 4.8 0.00 0.00 0.00 53 1011.2
20260506035506 6 315 1.6 4.8 0.00 0.00 0.00 53 1011.1
20260506035006 6 315 0.0 3.2 0.00 0.00 0.00 53 1011.1
20260506034006 6 294 1.6 9.7 0.00 0.00 0.00 52 1011.1
20260506033506 6 302 1.6 8.0 0.00 0.00 0.00 52 1011.0
20260506033007 6 300 1.6 8.0 0.00 0.00 0.00 52 1010.9
20260506032507 6 290 0.0 4.8 0.00 0.00 0.00 53 1010.8
20260506032006 6 290 1.6 4.8 0.00 0.00 0.00 52 1010.9
20260506031506 6 290 1.6 3.2 0.00 0.00 0.00 52 1010.9
20260506031007 6 290 1.6 3.2 0.00 0.00 0.00 52 1010.9
20260506030506 6 290 1.6 4.8 0.00 0.00 0.00 52 1010.7
20260506025007 7 290 0.0 0.0 0.00 0.00 0.00 51 1010.7
20260506024506 7 290 0.0 0.0 0.00 0.00 0.00 51 1010.6
20260506023006 7 290 0.0 0.0 0.00 0.00 0.00 50 1010.5
20260506022506 7 290 0.0 3.2 0.00 0.00 0.00 50 1010.3
20260506021506 7 290 3.2 4.8 0.00 0.00 0.00 47 1010.2
20260506021006 7 321 1.6 4.8 0.00 0.00 0.00 48 1010.3
20260506020506 7 321 0.0 4.8 0.00 0.00 0.00 48 1010.1
20260506015006 8 321 0.0 3.2 0.00 0.00 0.00 47 1010.0
20260506014506 8 321 0.0 8.0 0.00 0.00 0.00 47 1009.9
20260506014006 8 314 3.2 8.0 0.00 0.00 0.00 45 1009.7
20260506013506 8 284 1.6 4.8 0.00 0.00 0.00 46 1009.7
20260506013006 8 296 3.2 11.3 0.00 0.00 0.00 45 1009.6
20260506012506 8 305 3.2 8.0 0.00 0.00 0.00 45 1009.6
20260506012007 8 300 3.2 11.3 0.00 0.00 0.00 45 1009.6
20260506011506 8 310 3.2 11.3 0.00 0.00 0.00 44 1009.6
20260506011006 8 294 1.6 4.8 0.00 0.00 0.00 44 1009.6
20260506010506 8 293 4.8 14.5 0.00 0.00 0.00 45 1009.5
20260506005506 8 286 3.2 12.9 0.00 0.00 0.00 44 1009.4
20260506005006 8 301 4.8 8.0 0.00 0.00 0.00 44 1009.3
20260506004506 8 306 3.2 4.8 0.00 0.00 0.00 44 1009.2
20260506004006 8 302 3.2 8.0 0.00 0.00 0.00 44 1009.2
20260506003008 8 309 0.0 3.2 0.00 0.00 0.00 45 1009.1
20260506002006 8 309 1.6 4.8 0.00 0.00 0.00 43 1009.0
20260506001506 9 295 1.6 4.8 0.00 0.00 0.00 43 1009.0
20260506001007 9 308 3.2 8.0 0.00 0.00 0.00 44 1009.0
20260506000506 9 300 3.2 12.9 0.00 0.00 0.00 42 1008.9
20260506000006 9 272 1.6 11.3 0.00 0.00 0.00 43 1009.0
20260505233006 10 304 1.6 4.8 0.00 0.00 0.00 43 1008.9
20260505232506 10 313 4.8 14.5 0.00 0.00 0.00 42 1008.9
20260505232006 10 277 4.8 16.1 0.00 0.00 0.00 44 1008.9
20260505231506 9 237 3.2 8.0 0.00 0.00 0.00 42 1008.8
20260505231006 10 254 4.8 9.7 0.00 0.00 0.00 43 1008.9
20260505230506 10 296 3.2 11.3 0.00 0.00 0.00 44 1008.8
20260505230007 10 286 4.8 12.9 0.00 0.00 0.00 43 1008.8
20260505225006 10 315 3.2 11.3 0.00 0.00 0.00 43 1008.9
20260505224006 10 271 4.8 14.5 0.00 0.00 0.00 42 1009.0
20260505223506 10 262 4.8 11.3 0.00 0.00 0.00 42 1009.0
20260505223006 10 289 3.2 11.3 0.00 0.00 0.00 43 1008.8
20260505222506 10 279 4.8 12.9 0.00 0.00 0.00 42 1008.9
20260505222006 10 237 3.2 11.3 0.00 0.00 0.00 42 1008.8
20260505221506 10 283 4.8 14.5 0.00 0.00 0.00 43 1008.9
20260505221006 10 294 3.2 12.9 0.00 0.00 0.00 44 1008.8
20260505220506 10 283 6.4 14.5 0.00 0.00 0.00 41 1008.8
20260505215006 10 301 3.2 16.1 0.00 0.00 0.00 42 1008.8
20260505214506 10 303 4.8 16.1 0.00 0.00 0.00 41 1008.8
20260505214006 10 296 4.8 16.1 0.00 0.00 0.00 41 1008.9
20260505213506 10 245 3.2 9.7 0.00 0.00 0.00 40 1008.9
20260505213006 11 259 4.8 19.3 0.00 0.00 0.00 39 1008.9
20260505212506 11 205 4.8 19.3 0.00 0.00 0.00 38 1008.9
20260505211506 11 218 4.8 12.9 0.00 0.00 0.00 40 1008.9
20260505210506 10 299 8.0 19.3 0.00 0.00 0.00 41 1008.9
20260505210006 10 289 6.4 14.5 0.00 0.00 0.00 42 1008.9
20260505205506 10 299 3.2 14.5 0.00 0.00 0.00 42 1009.0
20260505205006 10 290 4.8 12.9 0.00 0.00 0.00 45 1009.1
20260505204505 10 321 3.2 8.0 0.00 0.00 0.00 42 1009.1
20260505204007 10 288 4.8 16.1 0.00 0.00 0.00 43 1009.0
20260505203506 10 290 6.4 19.3 0.00 0.00 0.00 41 1009.1
20260505203006 11 184 4.8 11.3 0.00 0.00 0.00 41 1009.1
20260505202506 10 273 3.2 9.7 0.00 0.00 0.00 42 1009.2
20260505201006 10 238 3.2 14.5 0.00 0.00 0.00 43 1009.3
20260505200506 10 272 3.2 14.5 0.00 0.00 0.00 42 1009.2
20260505200005 10 307 3.2 12.9 0.00 0.00 0.00 43 1009.3
20260505195505 10 280 4.8 14.5 0.00 0.00 0.00 43 1009.2
20260505195006 10 291 4.8 12.9 0.00 0.00 0.00 42 1009.3
20260505194506 10 302 4.8 20.9 0.00 0.00 0.00 40 1009.3
20260505194006 10 239 6.4 20.9 0.00 0.00 0.00 40 1009.3
20260505193007 10 212 3.2 11.3 0.00 0.00 0.00 38 1009.3
20260505192506 10 243 4.8 16.1 0.00 0.00 0.00 38 1009.5
20260505192006 10 250 3.2 12.9 0.00 0.00 0.00 41 1009.5
20260505191505 10 245 4.8 12.9 0.00 0.00 0.00 39 1009.4
20260505191006 10 318 3.2 11.3 0.00 0.00 0.00 43 1009.4
20260505190006 10 230 3.2 16.1 0.00 0.00 0.00 41 1009.5